| time (UTC) | temp F | wind direction | speed MPH | gust MPH | rain 1hr in | rain 24hr in | rain mn in | humidity % | barometer mb |
| 20260831235048 | 77 | 259 | 15.0 | 23.0 | 0.00 | 0.00 | 0.00 | 37 | 931.1 |
| 20260831234549 | 77 | 298 | 13.0 | 24.0 | 0.00 | 0.00 | 0.00 | 37 | 931.2 |
| 20260831234048 | 77 | 283 | 18.0 | 26.0 | 0.00 | 0.00 | 0.00 | 37 | 931.2 |
| 20260831233550 | 78 | 283 | 20.0 | 26.0 | 0.00 | 0.00 | 0.00 | 37 | 931.1 |
| 20260831233048 | 78 | 273 | 15.0 | 25.0 | 0.00 | 0.00 | 0.00 | 37 | 931.1 |
| 20260831232546 | 78 | 292 | 18.0 | 27.0 | 0.00 | 0.00 | 0.00 | 36 | 931.1 |
| 20260831232046 | 78 | 279 | 17.0 | 24.0 | 0.00 | 0.00 | 0.00 | 36 | 930.9 |
| 20260831231045 | 78 | 277 | 18.0 | 25.0 | 0.00 | 0.00 | 0.00 | 37 | 931.0 |
| 20260831230544 | 78 | 302 | 20.0 | 25.0 | 0.00 | 0.00 | 0.00 | 36 | 931.0 |
| 20260831230044 | 78 | 275 | 15.0 | 29.0 | 0.00 | 0.00 | 0.00 | 38 | 931.1 |
| 20260831225547 | 78 | 271 | 18.0 | 29.0 | 0.00 | 0.00 | 0.00 | 38 | 931.0 |
| 20260831225045 | 78 | 289 | 16.0 | 23.0 | 0.00 | 0.00 | 0.00 | 38 | 931.0 |
| 20260831224543 | 77 | 292 | 15.0 | 27.0 | 0.00 | 0.00 | 0.00 | 38 | 931.1 |
| 20260831224042 | 78 | 265 | 20.0 | 27.0 | 0.00 | 0.00 | 0.00 | 36 | 931.0 |
| 20260831223542 | 78 | 278 | 18.0 | 26.0 | 0.00 | 0.00 | 0.00 | 37 | 931.0 |
| 20260831223043 | 78 | 270 | 17.0 | 24.0 | 0.00 | 0.00 | 0.00 | 36 | 931.0 |
| 20260831222542 | 78 | 293 | 15.0 | 32.0 | 0.00 | 0.00 | 0.00 | 36 | 930.9 |
| 20260831222042 | 78 | 296 | 19.0 | 32.0 | 0.00 | 0.00 | 0.00 | 37 | 930.9 |
| 20260831221043 | 79 | 275 | 18.0 | 24.0 | 0.00 | 0.00 | 0.00 | 36 | 931.0 |
| 20260831220543 | 79 | 296 | 15.0 | 28.0 | 0.00 | 0.00 | 0.00 | 38 | 931.0 |
| 20260831220052 | 78 | 284 | 21.0 | 31.0 | 0.00 | 0.00 | 0.00 | 37 | 930.9 |
| 20260831215544 | 78 | 288 | 20.0 | 31.0 | 0.00 | 0.00 | 0.00 | 37 | 930.7 |
| 20260831215042 | 79 | 293 | 19.0 | 30.0 | 0.00 | 0.00 | 0.00 | 37 | 930.8 |
| 20260831214544 | 78 | 268 | 21.0 | 30.0 | 0.00 | 0.00 | 0.00 | 37 | 930.8 |
| 20260831214042 | 78 | 274 | 20.0 | 29.0 | 0.00 | 0.00 | 0.00 | 37 | 930.7 |
| 20260831213542 | 78 | 263 | 19.0 | 29.0 | 0.00 | 0.00 | 0.00 | 37 | 930.8 |
| 20260831213044 | 78 | 269 | 21.0 | 29.0 | 0.00 | 0.00 | 0.00 | 37 | 930.8 |
| 20260831212545 | 78 | 275 | 22.0 | 32.0 | 0.00 | 0.00 | 0.00 | 37 | 930.7 |
| 20260831212040 | 79 | 262 | 20.0 | 32.0 | 0.00 | 0.00 | 0.00 | 37 | 930.8 |
| 20260831211038 | 79 | 306 | 20.0 | 30.0 | 0.00 | 0.00 | 0.00 | 38 | 930.9 |
| 20260831210541 | 78 | 288 | 19.0 | 32.0 | 0.00 | 0.00 | 0.00 | 39 | 930.8 |
| 20260831210039 | 79 | 279 | 22.0 | 32.0 | 0.00 | 0.00 | 0.00 | 37 | 930.9 |
| 20260831205537 | 78 | 290 | 23.0 | 30.0 | 0.00 | 0.00 | 0.00 | 38 | 930.8 |
| 20260831205037 | 78 | 244 | 21.0 | 35.0 | 0.00 | 0.00 | 0.00 | 37 | 930.6 |
| 20260831204549 | 78 | 303 | 23.0 | 35.0 | 0.00 | 0.00 | 0.00 | 37 | 930.7 |
| 20260831204036 | 78 | 269 | 23.0 | 31.0 | 0.00 | 0.00 | 0.00 | 36 | 930.6 |
| 20260831203536 | 78 | 317 | 22.0 | 31.0 | 0.00 | 0.00 | 0.00 | 36 | 930.6 |
| 20260831203054 | 78 | 268 | 18.0 | 36.0 | 0.00 | 0.00 | 0.00 | 37 | 930.5 |
| 20260831202535 | 78 | 268 | 23.0 | 36.0 | 0.00 | 0.00 | 0.00 | 37 | 930.4 |
| 20260831202036 | 79 | 274 | 22.0 | 35.0 | 0.00 | 0.00 | 0.00 | 36 | 930.4 |
| 20260831201035 | 78 | 265 | 25.0 | 34.0 | 0.00 | 0.00 | 0.00 | 36 | 930.5 |
| 20260831200535 | 78 | 255 | 23.0 | 33.0 | 0.00 | 0.00 | 0.00 | 37 | 930.6 |
| 20260831200039 | 77 | 271 | 22.0 | 37.0 | 0.00 | 0.00 | 0.00 | 38 | 930.5 |
| 20260831195534 | 78 | 271 | 26.0 | 37.0 | 0.00 | 0.00 | 0.00 | 36 | 930.6 |
| 20260831195033 | 78 | 284 | 22.0 | 33.0 | 0.00 | 0.00 | 0.00 | 37 | 930.6 |
| 20260831194532 | 77 | 360 | 24.0 | 34.0 | 0.00 | 0.00 | 0.00 | 37 | 930.4 |
| 20260831194034 | 77 | 360 | 24.0 | 40.0 | 0.00 | 0.00 | 0.00 | 37 | 930.5 |
| 20260831193532 | 77 | 360 | 26.0 | 40.0 | 0.00 | 0.00 | 0.00 | 37 | 930.3 |
| 20260831193031 | 77 | 360 | 21.0 | 34.0 | 0.00 | 0.00 | 0.00 | 38 | 930.4 |
| 20260831192529 | 77 | 360 | 25.0 | 33.0 | 0.00 | 0.00 | 0.00 | 37 | 930.3 |
| 20260831192030 | 77 | 360 | 24.0 | 35.0 | 0.00 | 0.00 | 0.00 | 38 | 930.4 |
| 20260831191029 | 77 | 360 | 26.0 | 34.0 | 0.00 | 0.00 | 0.00 | 38 | 930.4 |
| 20260831190534 | 77 | 360 | 25.0 | 35.0 | 0.00 | 0.00 | 0.00 | 39 | 930.2 |
| 20260831190040 | 76 | 360 | 24.0 | 36.0 | 0.00 | 0.00 | 0.00 | 41 | 930.3 |
| 20260831185531 | 76 | 360 | 26.0 | 36.0 | 0.00 | 0.00 | 0.00 | 39 | 930.4 |
| 20260831185126 | 76 | 360 | 25.0 | 36.0 | 0.00 | 0.00 | 0.00 | 41 | 930.4 |
| 20260831184530 | 75 | 360 | 27.0 | 35.0 | 0.00 | 0.00 | 0.00 | 42 | 930.3 |
| 20260831184030 | 76 | 360 | 24.0 | 34.0 | 0.00 | 0.00 | 0.00 | 42 | 930.4 |
| 20260831183526 | 76 | 360 | 24.0 | 35.0 | 0.00 | 0.00 | 0.00 | 42 | 930.4 |
| 20260831183027 | 76 | 360 | 24.0 | 35.0 | 0.00 | 0.00 | 0.00 | 42 | 930.4 |
| 20260831182526 | 75 | 360 | 26.0 | 37.0 | 0.00 | 0.00 | 0.00 | 42 | 930.4 |
| 20260831182024 | 75 | 360 | 27.0 | 37.0 | 0.00 | 0.00 | 0.00 | 42 | 930.2 |
| 20260831181023 | 76 | 246 | 18.0 | 32.0 | 0.00 | 0.00 | 0.00 | 43 | 930.2 |
| 20260831180524 | 76 | 254 | 22.0 | 36.0 | 0.00 | 0.00 | 0.00 | 43 | 930.1 |
| 20260831180022 | 74 | 284 | 25.0 | 36.0 | 0.00 | 0.00 | 0.00 | 43 | 930.1 |
| 20260831175521 | 75 | 306 | 26.0 | 39.0 | 0.00 | 0.00 | 0.00 | 43 | 930.1 |
| 20260831175021 | 74 | 289 | 29.0 | 39.0 | 0.00 | 0.00 | 0.00 | 42 | 930.1 |
| 20260831174522 | 74 | 271 | 25.0 | 34.0 | 0.00 | 0.00 | 0.00 | 44 | 930.1 |
| 20260831174022 | 74 | 262 | 21.0 | 36.0 | 0.00 | 0.00 | 0.00 | 46 | 930.2 |
| 20260831173519 | 73 | 288 | 26.0 | 40.0 | 0.00 | 0.00 | 0.00 | 45 | 930.2 |
| 20260831173018 | 73 | 255 | 26.0 | 40.0 | 0.00 | 0.00 | 0.00 | 46 | 930.1 |
| 20260831172517 | 73 | 296 | 24.0 | 36.0 | 0.00 | 0.00 | 0.00 | 46 | 930.2 |
| 20260831172017 | 73 | 242 | 23.0 | 36.0 | 0.00 | 0.00 | 0.00 | 47 | 929.9 |
| 20260831171019 | 73 | 258 | 25.0 | 36.0 | 0.00 | 0.00 | 0.00 | 47 | 930.2 |
| 20260831170516 | 73 | 267 | 24.0 | 37.0 | 0.00 | 0.00 | 0.00 | 47 | 930.2 |
| 20260831170022 | 72 | 263 | 25.0 | 37.0 | 0.00 | 0.00 | 0.00 | 47 | 930.2 |
| 20260831165519 | 72 | 261 | 25.0 | 36.0 | 0.00 | 0.00 | 0.00 | 47 | 930.0 |
| 20260831165013 | 72 | 271 | 22.0 | 34.0 | 0.00 | 0.00 | 0.00 | 46 | 930.1 |
| 20260831164512 | 72 | 279 | 26.0 | 34.0 | 0.00 | 0.00 | 0.00 | 46 | 930.0 |
| 20260831164014 | 71 | 281 | 22.0 | 34.0 | 0.00 | 0.00 | 0.00 | 46 | 929.9 |
| 20260831163511 | 71 | 264 | 26.0 | 38.0 | 0.00 | 0.00 | 0.00 | 46 | 930.0 |
| 20260831163010 | 71 | 360 | 27.0 | 38.0 | 0.00 | 0.00 | 0.00 | 45 | 929.9 |
| 20260831162510 | 70 | 360 | 26.0 | 37.0 | 0.00 | 0.00 | 0.00 | 46 | 929.9 |
| 20260831162007 | 70 | 360 | 25.0 | 36.0 | 0.00 | 0.00 | 0.00 | 46 | 930.0 |
| 20260831161009 | 70 | 360 | 24.0 | 36.0 | 0.00 | 0.00 | 0.00 | 46 | 930.0 |
| 20260831160507 | 70 | 360 | 22.0 | 35.0 | 0.00 | 0.00 | 0.00 | 44 | 929.9 |
| 20260831160007 | 69 | 360 | 25.0 | 36.0 | 0.00 | 0.00 | 0.00 | 45 | 929.9 |
| 20260831155507 | 69 | 360 | 25.0 | 39.0 | 0.00 | 0.00 | 0.00 | 45 | 929.9 |
| 20260831155006 | 69 | 360 | 23.0 | 39.0 | 0.00 | 0.00 | 0.00 | 44 | 929.7 |
| 20260831154509 | 68 | 360 | 24.0 | 38.0 | 0.00 | 0.00 | 0.00 | 44 | 929.9 |
| 20260831154006 | 69 | 360 | 22.0 | 38.0 | 0.00 | 0.00 | 0.00 | 44 | 929.8 |
| 20260831153506 | 68 | 256 | 21.0 | 30.0 | 0.00 | 0.00 | 0.00 | 45 | 929.9 |
| 20260831153005 | 68 | 360 | 17.0 | 29.0 | 0.00 | 0.00 | 0.00 | 46 | 929.9 |
| 20260831152506 | 67 | 360 | 20.0 | 29.0 | 0.00 | 0.00 | 0.00 | 46 | 929.9 |
| 20260831152001 | 67 | 262 | 21.0 | 31.0 | 0.00 | 0.00 | 0.00 | 46 | 929.9 |
| 20260831151100 | 67 | 261 | 20.0 | 31.0 | 0.00 | 0.00 | 0.00 | 46 | 929.7 |
| 20260831150600 | 67 | 360 | 18.0 | 32.0 | 0.00 | 0.00 | 0.00 | 47 | 929.7 |
| 20260831150100 | 66 | 360 | 19.0 | 32.0 | 0.00 | 0.00 | 0.00 | 47 | 929.7 |
| 20260831145558 | 66 | 360 | 19.0 | 31.0 | 0.00 | 0.00 | 0.00 | 46 | 929.7 |
| 20260831145057 | 66 | 360 | 20.0 | 30.0 | 0.00 | 0.00 | 0.00 | 47 | 929.7 |
| 20260831144601 | 65 | 360 | 23.0 | 30.0 | 0.00 | 0.00 | 0.00 | 47 | 929.7 |
| 20260831144056 | 65 | 360 | 19.0 | 29.0 | 0.00 | 0.00 | 0.00 | 48 | 929.7 |
| 20260831143555 | 65 | 360 | 20.0 | 29.0 | 0.00 | 0.00 | 0.00 | 47 | 929.5 |
| 20260831143056 | 65 | 360 | 16.0 | 25.0 | 0.00 | 0.00 | 0.00 | 48 | 929.5 |
| 20260831142556 | 64 | 360 | 17.0 | 26.0 | 0.00 | 0.00 | 0.00 | 48 | 929.5 |
| 20260831142053 | 64 | 360 | 17.0 | 32.0 | 0.00 | 0.00 | 0.00 | 49 | 929.4 |
| 20260831141053 | 63 | 360 | 20.0 | 30.0 | 0.00 | 0.00 | 0.00 | 49 | 929.5 |
| 20260831140551 | 63 | 360 | 14.0 | 30.0 | 0.00 | 0.00 | 0.00 | 49 | 929.6 |
| 20260831140051 | 63 | 360 | 17.0 | 29.0 | 0.00 | 0.00 | 0.00 | 48 | 929.5 |
| 20260831135551 | 63 | 360 | 18.0 | 26.0 | 0.00 | 0.00 | 0.00 | 48 | 929.5 |
| 20260831135051 | 63 | 360 | 15.0 | 24.0 | 0.00 | 0.00 | 0.00 | 48 | 929.5 |
| 20260831134551 | 63 | 360 | 14.0 | 26.0 | 0.00 | 0.00 | 0.00 | 49 | 929.5 |
| 20260831134047 | 63 | 360 | 17.0 | 26.0 | 0.00 | 0.00 | 0.00 | 50 | 929.6 |
| 20260831133550 | 62 | 360 | 17.0 | 23.0 | 0.00 | 0.00 | 0.00 | 50 | 929.6 |
| 20260831133047 | 61 | 360 | 16.0 | 24.0 | 0.00 | 0.00 | 0.00 | 51 | 929.4 |
| 20260831132547 | 61 | 360 | 15.0 | 24.0 | 0.00 | 0.00 | 0.00 | 52 | 929.4 |
| 20260831132043 | 60 | 360 | 14.0 | 24.0 | 0.00 | 0.00 | 0.00 | 52 | 929.5 |
| 20260831131051 | 60 | 360 | 13.0 | 23.0 | 0.00 | 0.00 | 0.00 | 53 | 929.4 |
| 20260831130542 | 59 | 360 | 14.0 | 22.0 | 0.00 | 0.00 | 0.00 | 55 | 929.3 |
| 20260831130050 | 59 | 360 | 13.0 | 26.0 | 0.00 | 0.00 | 0.00 | 56 | 929.4 |
| 20260831125542 | 58 | 360 | 15.0 | 26.0 | 0.00 | 0.00 | 0.00 | 56 | 929.2 |
| 20260831125044 | 58 | 360 | 11.0 | 21.0 | 0.00 | 0.00 | 0.00 | 57 | 929.3 |
| 20260831124542 | 58 | 360 | 10.0 | 21.0 | 0.00 | 0.00 | 0.00 | 57 | 929.2 |
| 20260831124041 | 58 | 360 | 13.0 | 24.0 | 0.00 | 0.00 | 0.00 | 57 | 929.2 |
| 20260831123541 | 58 | 360 | 11.0 | 24.0 | 0.00 | 0.00 | 0.00 | 57 | 929.2 |
| 20260831123047 | 58 | 360 | 14.0 | 22.0 | 0.00 | 0.00 | 0.00 | 57 | 929.1 |
| 20260831122541 | 57 | 360 | 12.0 | 22.0 | 0.00 | 0.00 | 0.00 | 57 | 929.2 |
| 20260831122042 | 57 | 360 | 11.0 | 19.0 | 0.00 | 0.00 | 0.00 | 58 | 929.1 |
| 20260831121041 | 57 | 360 | 12.0 | 23.0 | 0.00 | 0.00 | 0.00 | 57 | 929.2 |
| 20260831120540 | 58 | 360 | 13.0 | 26.0 | 0.00 | 0.00 | 0.00 | 56 | 929.1 |
| 20260831120114 | 58 | 360 | 16.0 | 26.0 | 0.00 | 0.00 | 0.00 | 56 | 929.1 |
| 20260831115542 | 58 | 360 | 13.0 | 22.0 | 0.00 | 0.00 | 0.00 | 56 | 929.0 |
| 20260831115042 | 59 | 360 | 15.0 | 24.0 | 0.00 | 0.00 | 0.00 | 55 | 929.1 |
| 20260831114540 | 59 | 360 | 15.0 | 23.0 | 0.00 | 0.00 | 0.00 | 54 | 929.1 |
| 20260831114040 | 59 | 360 | 14.0 | 23.0 | 0.00 | 0.00 | 0.00 | 55 | 929.0 |
| 20260831113540 | 58 | 360 | 12.0 | 23.0 | 0.00 | 0.00 | 0.00 | 55 | 928.9 |
| 20260831113039 | 59 | 360 | 15.0 | 23.0 | 0.00 | 0.00 | 0.00 | 55 | 929.0 |
| 20260831112539 | 59 | 360 | 13.0 | 23.0 | 0.00 | 0.00 | 0.00 | 54 | 928.9 |
| 20260831112039 | 59 | 360 | 14.0 | 23.0 | 0.00 | 0.00 | 0.00 | 54 | 928.8 |
| 20260831111039 | 59 | 360 | 13.0 | 24.0 | 0.00 | 0.00 | 0.00 | 53 | 928.7 |
| 20260831110538 | 59 | 360 | 14.0 | 24.0 | 0.00 | 0.00 | 0.00 | 53 | 928.7 |
| 20260831110039 | 60 | 360 | 13.0 | 22.0 | 0.00 | 0.00 | 0.00 | 53 | 928.8 |
| 20260831105538 | 60 | 360 | 12.0 | 22.0 | 0.00 | 0.00 | 0.00 | 53 | 928.8 |
| 20260831105038 | 59 | 360 | 14.0 | 20.0 | 0.00 | 0.00 | 0.00 | 54 | 928.8 |
| 20260831104540 | 59 | 360 | 9.0 | 20.0 | 0.00 | 0.00 | 0.00 | 55 | 928.8 |
| 20260831104037 | 59 | 360 | 13.0 | 20.0 | 0.00 | 0.00 | 0.00 | 54 | 928.8 |
| 20260831103537 | 59 | 360 | 11.0 | 20.0 | 0.00 | 0.00 | 0.00 | 55 | 928.9 |
| 20260831103043 | 59 | 360 | 11.0 | 21.0 | 0.00 | 0.00 | 0.00 | 55 | 928.9 |
| 20260831102536 | 59 | 360 | 13.0 | 22.0 | 0.00 | 0.00 | 0.00 | 55 | 928.9 |
| 20260831102035 | 59 | 360 | 13.0 | 22.0 | 0.00 | 0.00 | 0.00 | 56 | 928.8 |
| 20260831101034 | 58 | 360 | 13.0 | 19.0 | 0.00 | 0.00 | 0.00 | 59 | 928.8 |
| 20260831100532 | 57 | 360 | 12.0 | 16.0 | 0.00 | 0.00 | 0.00 | 64 | 928.8 |
| 20260831100036 | 55 | 360 | 10.0 | 14.0 | 0.00 | 0.00 | 0.00 | 70 | 928.8 |
| 20260831095530 | 55 | 360 | 9.0 | 14.0 | 0.00 | 0.00 | 0.00 | 73 | 929.0 |
| 20260831095029 | 54 | 360 | 9.0 | 13.0 | 0.00 | 0.00 | 0.00 | 75 | 929.0 |
| 20260831094528 | 54 | 360 | 8.0 | 13.0 | 0.00 | 0.00 | 0.00 | 77 | 929.0 |
| 20260831094027 | 53 | 360 | 8.0 | 12.0 | 0.00 | 0.00 | 0.00 | 79 | 928.9 |
| 20260831093524 | 53 | 360 | 7.0 | 11.0 | 0.00 | 0.00 | 0.00 | 81 | 929.1 |
| 20260831093025 | 52 | 360 | 5.0 | 9.0 | 0.00 | 0.00 | 0.00 | 82 | 929.0 |
| 20260831092524 | 51 | 360 | 5.0 | 7.0 | 0.00 | 0.00 | 0.00 | 81 | 929.0 |
| 20260831092024 | 52 | 360 | 5.0 | 7.0 | 0.00 | 0.00 | 0.00 | 81 | 929.2 |
| 20260831091024 | 52 | 360 | 5.0 | 7.0 | 0.00 | 0.00 | 0.00 | 80 | 929.1 |
| 20260831090524 | 52 | 360 | 4.0 | 9.0 | 0.00 | 0.00 | 0.00 | 80 | 929.2 |
| 20260831090023 | 52 | 360 | 6.0 | 9.0 | 0.00 | 0.00 | 0.00 | 81 | 929.2 |
| 20260831085523 | 52 | 360 | 6.0 | 9.0 | 0.00 | 0.00 | 0.00 | 82 | 929.2 |
| 20260831085022 | 51 | 360 | 5.0 | 8.0 | 0.00 | 0.00 | 0.00 | 83 | 929.2 |
| 20260831084527 | 51 | 360 | 1.0 | 4.0 | 0.00 | 0.00 | 0.00 | 82 | 929.2 |
| 20260831084020 | 51 | 360 | 2.0 | 5.0 | 0.00 | 0.00 | 0.00 | 82 | 929.1 |
| 20260831083520 | 51 | 360 | 2.0 | 6.0 | 0.00 | 0.00 | 0.00 | 82 | 929.0 |
| 20260831083022 | 51 | 360 | 3.0 | 6.0 | 0.00 | 0.00 | 0.00 | 83 | 929.1 |
| 20260831082518 | 51 | 360 | 4.0 | 6.0 | 0.00 | 0.00 | 0.00 | 83 | 929.0 |
| 20260831082017 | 51 | 360 | 3.0 | 6.0 | 0.00 | 0.00 | 0.00 | 84 | 928.9 |
| 20260831081016 | 50 | 360 | 3.0 | 5.0 | 0.00 | 0.00 | 0.00 | 84 | 928.9 |
| 20260831080517 | 50 | 360 | 3.0 | 4.0 | 0.00 | 0.00 | 0.00 | 84 | 929.0 |
| 20260831080016 | 50 | 360 | 2.0 | 5.0 | 0.00 | 0.00 | 0.00 | 84 | 928.9 |
| 20260831075517 | 50 | 360 | 2.0 | 5.0 | 0.00 | 0.00 | 0.00 | 84 | 928.9 |
| 20260831075016 | 50 | 360 | 4.0 | 6.0 | 0.00 | 0.00 | 0.00 | 84 | 928.9 |
| 20260831074517 | 50 | 222 | 4.0 | 6.0 | 0.00 | 0.00 | 0.00 | 84 | 929.0 |
| 20260831074017 | 50 | 225 | 4.0 | 6.0 | 0.00 | 0.00 | 0.00 | 85 | 928.8 |
| 20260831073515 | 50 | 226 | 4.0 | 6.0 | 0.00 | 0.00 | 0.00 | 87 | 928.7 |
| 20260831073016 | 49 | 360 | 4.0 | 6.0 | 0.00 | 0.00 | 0.00 | 88 | 928.9 |
| 20260831072511 | 48 | 360 | 3.0 | 5.0 | 0.00 | 0.00 | 0.00 | 89 | 928.9 |
| 20260831072010 | 47 | 360 | 0.0 | 4.0 | 0.00 | 0.00 | 0.00 | 87 | 928.8 |
| 20260831071011 | 47 | 360 | 0.0 | 4.0 | 0.00 | 0.00 | 0.00 | 86 | 928.9 |
| 20260831070510 | 47 | 360 | 1.0 | 3.0 | 0.00 | 0.00 | 0.00 | 86 | 929.0 |
| 20260831070020 | 48 | 360 | 0.0 | 0.0 | 0.00 | 0.00 | 0.00 | 87 | 929.0 |
| 20260831065509 | 48 | 360 | 0.0 | 0.0 | 0.00 | 0.00 | 0.00 | 87 | 929.2 |
| 20260831065009 | 48 | 360 | 0.0 | 4.0 | 0.00 | 0.00 | 0.00 | 87 | 929.1 |
| 20260831064509 | 48 | 360 | 1.0 | 4.0 | 0.00 | 0.00 | 0.00 | 87 | 929.2 |
| 20260831064007 | 47 | 360 | 0.0 | 2.0 | 0.00 | 0.00 | 0.00 | 87 | 929.1 |
| 20260831063511 | 47 | 360 | 0.0 | 2.0 | 0.00 | 0.00 | 0.00 | 87 | 929.0 |
| 20260831063006 | 48 | 360 | 0.0 | 0.0 | 0.00 | 0.00 | 0.00 | 86 | 929.1 |
| 20260831062508 | 48 | 360 | 0.0 | 0.0 | 0.00 | 0.00 | 0.00 | 88 | 929.0 |
| 20260831062008 | 48 | 360 | 0.0 | 1.0 | 0.00 | 0.00 | 0.00 | 88 | 929.1 |
| 20260831061005 | 48 | 360 | 0.0 | 2.0 | 0.00 | 0.00 | 0.00 | 87 | 929.2 |
| 20260831060503 | 48 | 360 | 0.0 | 0.0 | 0.00 | 0.00 | 0.00 | 87 | 929.2 |
| 20260831060001 | 48 | 360 | 0.0 | 2.0 | 0.00 | 0.00 | 0.00 | 88 | 929.3 |
| 20260831055500 | 49 | 360 | 0.0 | 2.0 | 0.00 | 0.00 | 0.00 | 88 | 929.4 |
| 20260831055000 | 48 | 360 | 0.0 | 1.0 | 0.00 | 0.00 | 0.00 | 88 | 929.4 |
| 20260831054604 | 48 | 360 | 0.0 | 1.0 | 0.00 | 0.00 | 0.00 | 88 | 929.3 |
| 20260831054059 | 49 | 360 | 0.0 | 1.0 | 0.00 | 0.00 | 0.00 | 89 | 929.4 |
| 20260831053602 | 49 | 360 | 0.0 | 2.0 | 0.00 | 0.00 | 0.00 | 88 | 929.4 |
| 20260831053103 | 49 | 360 | 0.0 | 2.0 | 0.00 | 0.00 | 0.00 | 88 | 929.6 |
| 20260831052558 | 49 | 360 | 0.0 | 1.0 | 0.00 | 0.00 | 0.00 | 88 | 929.5 |
| 20260831052059 | 49 | 360 | 0.0 | 2.0 | 0.00 | 0.00 | 0.00 | 89 | 929.6 |
| 20260831051059 | 49 | 360 | 1.0 | 2.0 | 0.00 | 0.00 | 0.00 | 89 | 929.6 |
| 20260831050600 | 49 | 360 | 0.0 | 0.0 | 0.00 | 0.00 | 0.00 | 89 | 929.6 |
| 20260831050059 | 49 | 360 | 0.0 | 0.0 | 0.00 | 0.00 | 0.00 | 88 | 929.6 |
| 20260831045558 | 49 | 360 | 0.0 | 0.0 | 0.00 | 0.00 | 0.00 | 88 | 929.6 |
| 20260831045058 | 49 | 360 | 0.0 | 0.0 | 0.00 | 0.00 | 0.00 | 87 | 929.6 |
| 20260831044557 | 49 | 360 | 0.0 | 0.0 | 0.00 | 0.00 | 0.00 | 87 | 929.5 |
| 20260831044055 | 50 | 360 | 0.0 | 2.0 | 0.00 | 0.00 | 0.00 | 87 | 929.5 |
| 20260831043554 | 50 | 360 | 0.0 | 4.0 | 0.00 | 0.00 | 0.00 | 87 | 929.5 |
| 20260831043056 | 51 | 360 | 1.0 | 5.0 | 0.00 | 0.00 | 0.00 | 87 | 929.6 |
| 20260831042553 | 51 | 360 | 2.0 | 4.0 | 0.00 | 0.00 | 0.00 | 88 | 929.5 |
| 20260831042053 | 51 | 360 | 1.0 | 5.0 | 0.00 | 0.00 | 0.00 | 88 | 929.6 |
| 20260831041052 | 51 | 360 | 3.0 | 5.0 | 0.00 | 0.00 | 0.00 | 88 | 929.5 |
| 20260831040552 | 51 | 360 | 4.0 | 5.0 | 0.00 | 0.00 | 0.00 | 87 | 929.5 |
| 20260831040051 | 51 | 360 | 2.0 | 4.0 | 0.00 | 0.00 | 0.00 | 86 | 929.5 |
| 20260831035551 | 52 | 360 | 0.0 | 5.0 | 0.00 | 0.00 | 0.00 | 86 | 929.6 |
| 20260831035048 | 52 | 360 | 3.0 | 5.0 | 0.00 | 0.00 | 0.00 | 86 | 929.7 |
| 20260831034547 | 53 | 360 | 3.0 | 6.0 | 0.00 | 0.00 | 0.00 | 86 | 929.6 |
| 20260831034051 | 53 | 360 | 4.0 | 6.0 | 0.00 | 0.00 | 0.00 | 86 | 929.7 |
| 20260831033547 | 53 | 360 | 4.0 | 6.0 | 0.00 | 0.00 | 0.00 | 86 | 929.7 |
| 20260831033045 | 53 | 360 | 3.0 | 5.0 | 0.00 | 0.00 | 0.00 | 85 | 929.7 |
| 20260831032544 | 53 | 360 | 2.0 | 5.0 | 0.00 | 0.00 | 0.00 | 84 | 929.7 |
| 20260831032046 | 54 | 360 | 0.0 | 0.0 | 0.00 | 0.00 | 0.00 | 84 | 929.8 |
| 20260831031044 | 55 | 360 | 1.0 | 5.0 | 0.00 | 0.00 | 0.00 | 84 | 929.9 |
| 20260831030543 | 55 | 360 | 4.0 | 6.0 | 0.00 | 0.00 | 0.00 | 85 | 929.9 |
| 20260831030043 | 54 | 360 | 5.0 | 6.0 | 0.00 | 0.00 | 0.00 | 85 | 929.9 |
| 20260831025542 | 54 | 360 | 3.0 | 5.0 | 0.00 | 0.00 | 0.00 | 85 | 929.8 |
| 20260831025043 | 54 | 360 | 4.0 | 5.0 | 0.00 | 0.00 | 0.00 | 85 | 929.8 |
| 20260831024540 | 54 | 360 | 4.0 | 5.0 | 0.00 | 0.00 | 0.00 | 84 | 929.6 |
| 20260831024040 | 54 | 360 | 4.0 | 5.0 | 0.00 | 0.00 | 0.00 | 83 | 929.6 |
| 20260831023543 | 55 | 360 | 3.0 | 6.0 | 0.00 | 0.00 | 0.00 | 82 | 929.6 |
| 20260831023041 | 55 | 360 | 4.0 | 6.0 | 0.00 | 0.00 | 0.00 | 81 | 929.5 |
| 20260831022536 | 56 | 360 | 4.0 | 6.0 | 0.00 | 0.00 | 0.00 | 80 | 929.4 |
| 20260831022035 | 57 | 360 | 4.0 | 6.0 | 0.00 | 0.00 | 0.00 | 79 | 929.4 |
| 20260831021034 | 58 | 360 | 4.0 | 5.0 | 0.00 | 0.00 | 0.00 | 78 | 929.2 |
| 20260831020533 | 58 | 360 | 4.0 | 5.0 | 0.00 | 0.00 | 0.00 | 77 | 929.1 |
| 20260831020032 | 59 | 360 | 4.0 | 6.0 | 0.00 | 0.00 | 0.00 | 76 | 929.1 |
| 20260831015531 | 60 | 360 | 4.0 | 7.0 | 0.00 | 0.00 | 0.00 | 74 | 929.0 |
| 20260831015031 | 61 | 360 | 5.0 | 9.0 | 0.00 | 0.00 | 0.00 | 73 | 929.0 |
| 20260831014531 | 62 | 360 | 6.0 | 9.0 | 0.00 | 0.00 | 0.00 | 72 | 928.9 |
| 20260831014031 | 63 | 360 | 7.0 | 12.0 | 0.00 | 0.00 | 0.00 | 71 | 928.9 |
| 20260831013531 | 63 | 360 | 9.0 | 13.0 | 0.00 | 0.00 | 0.00 | 70 | 928.8 |
| 20260831013031 | 63 | 360 | 9.0 | 15.0 | 0.00 | 0.00 | 0.00 | 70 | 928.8 |
| 20260831012531 | 64 | 360 | 11.0 | 19.0 | 0.00 | 0.00 | 0.00 | 68 | 928.9 |
| 20260831012029 | 64 | 360 | 11.0 | 20.0 | 0.00 | 0.00 | 0.00 | 67 | 929.0 |
| 20260831011029 | 65 | 360 | 12.0 | 20.0 | 0.00 | 0.00 | 0.00 | 63 | 928.9 |
| 20260831010530 | 66 | 292 | 13.0 | 21.0 | 0.00 | 0.00 | 0.00 | 63 | 928.9 |
| 20260831010051 | 66 | 290 | 14.0 | 21.0 | 0.00 | 0.00 | 0.00 | 62 | 928.8 |
| 20260831005530 | 66 | 271 | 12.0 | 20.0 | 0.00 | 0.00 | 0.00 | 61 | 928.8 |
| 20260831005029 | 67 | 360 | 14.0 | 21.0 | 0.00 | 0.00 | 0.00 | 60 | 928.7 |
| 20260831004530 | 67 | 360 | 13.0 | 22.0 | 0.00 | 0.00 | 0.00 | 58 | 928.6 |
| 20260831004031 | 67 | 360 | 16.0 | 22.0 | 0.00 | 0.00 | 0.00 | 56 | 928.5 |
| 20260831003532 | 68 | 360 | 13.0 | 20.0 | 0.00 | 0.00 | 0.00 | 55 | 928.5 |
| 20260831003028 | 67 | 360 | 12.0 | 20.0 | 0.00 | 0.00 | 0.00 | 57 | 928.5 |
| 20260831002528 | 67 | 360 | 9.0 | 13.0 | 0.00 | 0.00 | 0.00 | 61 | 928.7 |
| 20260831002028 | 67 | 360 | 8.0 | 13.0 | 0.00 | 0.00 | 0.00 | 61 | 928.6 |
| 20260831001028 | 68 | 360 | 9.0 | 13.0 | 0.00 | 0.00 | 0.00 | 66 | 928.4 |
| 20260831000527 | 67 | 360 | 8.0 | 11.0 | 0.00 | 0.00 | 0.00 | 66 | 928.5 |
| 20260831000027 | 66 | 360 | 7.0 | 10.0 | 0.00 | 0.00 | 0.00 | 71 | 928.6 |
| 20260830235528 | 65 | 360 | 6.0 | 10.0 | 0.00 | 0.00 | 0.00 | 73 | 928.7 |